User: anonymous   Login
Location: Stonelick Lake State Park
(39.2170°N, 84.0850°W)
Time: 00:18:24
(UTC-04:00)
Language:

Abrixas rocket - Orbit

View from above orbital plane
View from above orbital plane
View from above satellite
View from above satellite

Ground track
Ground track

The orbit data is extracted from the following two-line orbital elements,

1 25723U 99022C   17119.87498370 +.00007044 +00000-0 +11524-3 0  9997
2 25723 048.4174 064.8915 0010123 164.3230 195.8030 15.53533667998701
Epoch (UTC): 29 April 2017 20:59:58
Eccentricity: 0.0010123
inclination: 48.4174°
perigee height: 399 km
apogee height: 413 km
right ascension of ascending node: 64.8915°
argument of perigee: 164.3230°
revolutions per day: 15.53533667
mean anomaly at epoch: 195.8030°
orbit number at epoch: 99870

The dashed part of the orbit path shows where the satellite is in the earth's shadow,  

DLR